Regional Weather Roundup
Issued by NWS

Home | Current Version | Previous Version | Graphics & Text | Print | Product List | Glossary On
Versions: 1 2 3 4 5 6 7 8 9 10 11 12 13 14 15 16 17 18 19 20 21 22 23 24 25 26 27 28 29 30 31 32 33 34 35 36 37 38 39 40 41 42 43 44 45 46 47 48 49 50
808
ASUS45 KBOI 182010
RWRID

IDAHO REGIONAL WEATHER ROUNDUP
NATIONAL WEATHER SERVICE BOISE ID
200 PM MDT WED OCT 18 2017

NOTE: "FAIR" INDICATES FEW OR NO CLOUDS BELOW 12000 FEET
WITH NO SIGNIFICANT WEATHER AND/OR OBSTRUCTIONS TO VISIBILITY

IDZ012-014-182100-
SOUTHWEST IDAHO


CITY           SKY/WX    TMP DP  RH WIND       PRES   REMARKS
BOISE          SUNNY     72  31  22 S8        30.06F
CALDWELL       SUNNY     66  37  34 S5        30.06F
MOUNTAIN HOME  MOSUNNY   69  29  22 E10       30.07F
$$

IDZ016-017-182100-
SOUTHCENTRAL IDAHO


CITY           SKY/WX    TMP DP  RH WIND       PRES   REMARKS
BURLEY         SUNNY     68  27  21 CALM      30.13F
JEROME         SUNNY     68  27  21 W3        30.14F
TWIN FALLS     SUNNY     69  27  20 E6        30.13F
$$

IDZ019>023-182100-
SOUTHEAST IDAHO


CITY           SKY/WX    TMP DP  RH WIND       PRES   REMARKS
IDAHO FALLS    MOSUNNY   64  28  25 SW20G26   30.17F
POCATELLO      SUNNY     68  27  21 W7        30.17F
REXBURG        SUNNY     63  26  24 W16G26    30.16F
$$

IDZ006-010-011-018-031-032-182100-
CENTRAL IDAHO MOUNTAINS


CITY           SKY/WX    TMP DP  RH WIND       PRES   REMARKS
MCCALL         MOSUNNY   60  34  37 S15       30.09F
HAILEY         MOSUNNY   63  30  29 SE9       30.17F
STANLEY          N/A     59  30  33 S5        30.18F
SALMON         SUNNY     58  31  35 N5        30.03F
CHALLIS        SUNNY     67  29  24 VRB3      30.07F
$$

IDZ002-004-006-007-026-182100-
NORTHERN IDAHO


CITY           SKY/WX    TMP DP  RH WIND       PRES   REMARKS
LEWISTON       CLOUDY    57  44  62 NE7       29.94F
LOWELL           N/A     54  45  71 CALM      30.01F
COEUR D`ALENE  LGT RAIN  50  44  80 S6        29.95F
MULLAN PASS    LGT RAIN  38  36  92 VRB5G18   29.97F VSB 1/4 WCI  34
$$




USA.gov is the U.S. government's official web portal to all federal, state and local government web resources and services.